This is the latest recevied weather packets stored in our database for station/object K7FLA. If no packets are shown the sender has not sent any weather packets the latest 1 day(s).
| Time | Temp. | Humidity | Pressure | Rain* | Wind** | Luminosity | Snow |
|---|---|---|---|---|---|---|---|
| 1836274651 | 21.67° C | 67% | 1095.4 hPa | 0 mm | 0.89 m/s, 241° | 0 W/m² | - |
| 1836274504 | 21.67° C | 67% | 1095.3 hPa | 0 mm | 1.34 m/s, 225° | 0 W/m² | - |
| 1836274348 | 22.22° C | 66% | 1095.3 hPa | 0 mm | 0.89 m/s, 254° | 0 W/m² | - |
| 1836274202 | 21.67° C | 67% | 1095.4 hPa | 0 mm | 1.34 m/s, 251° | 0 W/m² | - |
| 1836274047 | 22.22° C | 66% | 1095.2 hPa | 0 mm | 1.34 m/s, 232° | 0 W/m² | - |
| 1778043741 | 11.67° C | 76% | 1096.7 hPa | 0 mm | 1.34 m/s, 186° | 0 W/m² | - |
| 1778043438 | 11.67° C | 76% | 1096.8 hPa | 0 mm | 0.45 m/s, 228° | 0 W/m² | - |
| 1778043134 | 11.67° C | 75% | 1096.6 hPa | 0 mm | 0.45 m/s, 186° | 0 W/m² | - |
| 1778042832 | 11.67° C | 75% | 1096.6 hPa | 0 mm | 0 m/s | 0 W/m² | - |
| 1778042529 | 11.67° C | 75% | 1096.5 hPa | 0 mm | 0.89 m/s, 158° | 0 W/m² | - |
| 1778042226 | 11.67° C | 74% | 1096.3 hPa | 0 mm | 1.34 m/s, 197° | 0 W/m² | - |
| 1778041924 | 11.67° C | 74% | 1096.5 hPa | 0 mm | 0.45 m/s, 152° | 0 W/m² | - |
| 1778041623 | 11.67° C | 73% | 1096.2 hPa | 0 mm | 1.79 m/s, 187° | 0 W/m² | - |
| 1778041321 | 11.67° C | 73% | 1096.3 hPa | 0 mm | 0.89 m/s, 175° | 0 W/m² | - |
| 1778041019 | 11.67° C | 72% | 1096.3 hPa | 0 mm | 0.89 m/s, 168° | 0 W/m² | - |
| 1778040715 | 11.67° C | 72% | 1096.1 hPa | 0 mm | 0.89 m/s, 152° | 0 W/m² | - |
| 1778040413 | 11.67° C | 72% | 1096.2 hPa | 0 mm | 0.89 m/s, 206° | 0 W/m² | - |
| 1778040109 | 11.67° C | 71% | 1096.1 hPa | 0 mm | 1.79 m/s, 180° | 0 W/m² | - |
| 1778039807 | 11.67° C | 71% | 1096.1 hPa | 0 mm | 0.89 m/s, 163° | 0 W/m² | - |
| 1778039503 | 11.67° C | 71% | 1095.9 hPa | 0 mm | 1.34 m/s, 214° | 0 W/m² | - |
| 1778039200 | 11.67° C | 70% | 1095.7 hPa | 0 mm | 1.34 m/s, 137° | 0 W/m² | - |
| 1778038897 | 11.67° C | 70% | 1095.9 hPa | 0 mm | 0.89 m/s, 196° | 0 W/m² | - |
| 1778038594 | 12.22° C | 70% | 1095.9 hPa | 0 mm | 1.34 m/s, 177° | 0 W/m² | - |
| 1778038291 | 12.22° C | 70% | 1095.7 hPa | 0 mm | 1.34 m/s, 228° | 0 W/m² | - |
| 1778037989 | 12.22° C | 70% | 1095.7 hPa | 0 mm | 0.89 m/s, 183° | 0 W/m² | - |
* Rain latest hour (hover to see other rain measurements)
** Current wind speed in m/s (hover to see current wind gust speed)